STARLINK-35545, 66109

Orbit data source: Space-Track

STARLINK-35545, 66109 is a payload satellite owned by SpaceX/Seattle (US) in LEO that was launched on Sun, 19 Oct 2025 UTC via an FALCON 9 launch vehicle from the Air Force Western Test Range (AFWTR). Payload-class satellites include a variety of spacecraft equipped with specific instruments for various scientific and technological missions. These include communications satellites like Starlink; space stations such as the ISS; scientific satellites like the Hubble; Earth observation satellites from companies like Planet Labs, Umbra, and HawkEye 360; GPS; miniature CubeSats for education and research; and military/defense satellites.

Loading next visibility...
Identifier
66109, 2025-236Z
Orbit
LEO
Country
Flag of USUS
Related business
Manufacturer
SpaceX/Seattle
Mission
Operational Commercial Communications
Bus & Motor
STARLINK V2MO, Unknown motor
Mass
575 kg wet, ~530 kg dry
Launch date (UTC)
2025-10-19 (6 months ago)
Launch vehicle
FALCON 9
Launch site
Air Force Western Test Range (AFWTR)
Object type
Payload
Rocket body
Debris
Shape & HBR
Box + 2 Pan, 17.7 m
Radar Cross Section
36.964 m²

Expand to show TLE details & history
Last TLE update: 14 hours ago

TLE from 14 hours ago
0 STARLINK-35545
1 66109U 25236Z   26095.06801737  .00014420  00000-0  49881-3 0  9998
2 66109  53.1607 341.3169 0001056 131.3588 228.7504 15.30148963 26987
Epoch: 2026-04-05T01:37Z
TLE epoch observation values (Epoch: 2026-04-05T01:37:56.700Z)
Latitude
-0.00001°
Longitude
123.45189°
Altitude
476.744 km
Speed
7.628 km/s
True Right ascension
22h 45m 16s
True Declination
0° 00' 00"
Sunlit
Object was in daylight at epoch
Visualization orbit readout
Latitude
Unknown
Longitude
Unknown
Altitude
Unknown
Speed
Unknown
Apparent Right ascension
Unknown
Apparent Declination
Unknown
Sunlit
N/A
Visualization observer readout
Local Sidereal Time
21:54:13
Azimuth
Unknown
Elevation
Unknown
Doppler factor
Unknown
Orbital elements
Apogee altitude
476.348 km
Perigee altitude
474.9 km
Semi-major axis
6,853.761 km
Eccentricity
0.00011
Inclination
53.1607°
RAAN
341.3169°
Arg. of periapsis
131.3588°
True anomaly
228.7413°
Mean anomaly
228.7504°
Eccentric anomaly
228.74585°
Mean motion
3.82516 °/min
Orbital period
94.11 mins
BSTAR
0.00049881
Loading maneuver chart data...
Computing Atmospheric mass density...
Loading historical data...
Loading historical data...
Loading historical data...
Loading historical data...
Loading historical data...
Loading historical data...
Loading historical data...

Documentation

Showing up to 5 results
|